When you browse on this site, cookies collect data to enhance your experience and personalize the content and advertising you see.
Visit our Privacy Policy to learn more. By continuing to use the site, you agree to this use of cookies and data.
  • In Latvia
  • List of Countries
  • For 7 days
  • Water Temperature
  • Weather Map
  • Weather Widgets
  • user-avatar
    Login

    Hourly Weather Grzymkowice

    Today, 17 February, Monday

    Time Temperature Precipitation Wind Pressure Humidity
    00:00 +7°C° 0 mm 9 mps 741 mmHg 48%
    01:00 +7°C° 0 mm 10 mps 741 mmHg 48%
    02:00 +7°C° 0 mm 9 mps 741 mmHg 49%
    03:00 +7°C° 0 mm 9 mps 741 mmHg 49%
    04:00 +7°C° 0 mm 9 mps 740 mmHg 50%
    05:00 +7°C° 0 mm 9 mps 741 mmHg 51%
    06:00 +9°C° 0 mm 8 mps 742 mmHg 52%
    07:00 +9°C° 0 mm 8 mps 742 mmHg 53%
    08:00 +9°C° 0 mm 8 mps 743 mmHg 55%
    09:00 +9°C° 0 mm 8 mps 743 mmHg 56%
    10:00 +10°C° 0 mm 8 mps 743 mmHg 57%
    11:00 +10°C° 0 mm 7 mps 744 mmHg 58%
    12:00 +10°C° 0 mm 7 mps 744 mmHg 60%
    13:00 +10°C° 0 mm 6 mps 744 mmHg 61%
    14:00 +10°C° 0 mm 5 mps 744 mmHg 62%
    15:00 +11°C° 0 mm 4 mps 744 mmHg 64%
    16:00 +10°C° 0 mm 3 mps 744 mmHg 65%
    17:00 +10°C° 0 mm 3 mps 744 mmHg 68%
    18:00 +9°C° 0 mm 3 mps 744 mmHg 72%
    19:00 +9°C° 0 mm 2 mps 744 mmHg 75%
    20:00 +9°C° 0 mm 3 mps 744 mmHg 77%
    21:00 +9°C° 0 mm 3 mps 744 mmHg 78%
    22:00 +8°C° 0 mm 3 mps 744 mmHg 80%
    23:00 +8°C° 0.2 mm 3 mps 744 mmHg 82%

    Tomorrow, 18 February, Tuesday

    Time Temperature Precipitation Wind Pressure Humidity
    00:00 +8°C° 0.2 mm 3 mps 744 mmHg 84%
    01:00 +8°C° 0.2 mm 3 mps 744 mmHg 86%
    02:00 +6°C° 0.1 mm 4 mps 744 mmHg 82%
    03:00 +6°C° 0.1 mm 4 mps 744 mmHg 77%
    04:00 +6°C° 0.1 mm 5 mps 744 mmHg 73%
    05:00 +5°C° 0 mm 5 mps 744 mmHg 75%
    06:00 +5°C° 0 mm 5 mps 745 mmHg 76%
    07:00 +4°C° 0 mm 6 mps 745 mmHg 78%
    08:00 +4°C° 0 mm 7 mps 745 mmHg 74%
    09:00 +5°C° 0 mm 8 mps 745 mmHg 69%
    10:00 +5°C° 0 mm 9 mps 746 mmHg 65%
    11:00 +5°C° 0 mm 9 mps 746 mmHg 63%
    12:00 +6°C° 0 mm 9 mps 746 mmHg 61%
    13:00 +6°C° 0 mm 9 mps 746 mmHg 59%
    14:00 +6°C° 0 mm 9 mps 746 mmHg 60%
    15:00 +5°C° 0 mm 8 mps 746 mmHg 60%
    16:00 +5°C° 0 mm 8 mps 746 mmHg 60%
    17:00 +4°C° 0 mm 7 mps 747 mmHg 61%
    18:00 +3°C° 0 mm 7 mps 747 mmHg 62%
    19:00 +2°C° 0 mm 6 mps 748 mmHg 63%
    20:00 +2°C° 0 mm 6 mps 748 mmHg 66%
    21:00 +2°C° 0 mm 5 mps 748 mmHg 68%
    22:00 +1°C° 0 mm 5 mps 748 mmHg 71%
    23:00 +1°C° 0 mm 5 mps 748 mmHg 72%

    Day after tomorrow, 19 February, Wednesday

    Time Temperature Precipitation Wind Pressure Humidity
    00:00 +1°C° 0 mm 5 mps 748 mmHg 73%
    01:00 0°C° 0 mm 5 mps 748 mmHg 74%
    02:00 0°C° 0 mm 5 mps 747 mmHg 75%
    03:00 0°C° 0 mm 5 mps 747 mmHg 75%
    04:00 0°C° 0 mm 5 mps 747 mmHg 76%
    05:00 0°C° 0 mm 5 mps 746 mmHg 77%
    06:00 -1°C° 0 mm 5 mps 746 mmHg 78%
    07:00 -1°C° 0 mm 5 mps 745 mmHg 79%
    08:00 -1°C° 0 mm 6 mps 745 mmHg 76%
    09:00 +1°C° 0 mm 6 mps 745 mmHg 73%
    10:00 +2°C° 0 mm 6 mps 744 mmHg 69%
    11:00 +3°C° 0 mm 7 mps 744 mmHg 66%
    12:00 +3°C° 0 mm 7 mps 743 mmHg 63%
    13:00 +4°C° 0 mm 7 mps 743 mmHg 60%
    14:00 +4°C° 0 mm 7 mps 742 mmHg 63%
    15:00 +3°C° 0 mm 6 mps 742 mmHg 66%
    16:00 +3°C° 0 mm 6 mps 741 mmHg 69%
    17:00 +3°C° 0.3 mm 6 mps 741 mmHg 77%
    18:00 +2°C° 0.3 mm 6 mps 741 mmHg 85%
    19:00 +1°C° 0.3 mm 6 mps 742 mmHg 94%
    20:00 +1°C° 0.2 mm 6 mps 742 mmHg 89%
    21:00 +1°C° 0.2 mm 5 mps 742 mmHg 85%
    22:00 +1°C° 0.2 mm 5 mps 743 mmHg 80%
    23:00 +1°C° 0 mm 5 mps 743 mmHg 80%

    20 February, Thursday

    Time Temperature Precipitation Wind Pressure Humidity
    00:00 0°C° 0 mm 5 mps 744 mmHg 80%
    01:00 0°C° 0 mm 5 mps 744 mmHg 79%
    02:00 -1°C° 0 mm 5 mps 745 mmHg 81%
    03:00 -1°C° 0 mm 5 mps 745 mmHg 83%
    04:00 -1°C° 0 mm 5 mps 745 mmHg 85%
    05:00 -2°C° 0 mm 6 mps 745 mmHg 83%
    06:00 -2°C° 0 mm 6 mps 745 mmHg 81%
    07:00 -1°C° 0 mm 6 mps 746 mmHg 79%
    08:00 -1°C° 0 mm 6 mps 746 mmHg 80%
    09:00 -1°C° 0 mm 7 mps 746 mmHg 80%
    10:00 -1°C° 0 mm 7 mps 747 mmHg 81%
    11:00 +1°C° 0 mm 6 mps 747 mmHg 77%
    12:00 +1°C° 0 mm 6 mps 747 mmHg 73%
    13:00 +2°C° 0 mm 6 mps 747 mmHg 68%
    14:00 +2°C° 0 mm 5 mps 748 mmHg 68%
    15:00 +2°C° 0 mm 5 mps 748 mmHg 67%
    16:00 +3°C° 0 mm 4 mps 748 mmHg 67%
    17:00 +2°C° 0 mm 3 mps 748 mmHg 69%
    18:00 +3°C° 0 mm 2 mps 748 mmHg 72%
    19:00 +2°C° 0 mm 2 mps 749 mmHg 74%
    20:00 +2°C° 0 mm 2 mps 749 mmHg 75%
    21:00 +2°C° 0 mm 2 mps 749 mmHg 76%
    22:00 +1°C° 0 mm 2 mps 749 mmHg 77%
    23:00 0°C° 0 mm 3 mps 749 mmHg 77%

    21 February, Friday

    Time Temperature Precipitation Wind Pressure Humidity
    00:00 0°C° 0 mm 3 mps 749 mmHg 77%
    01:00 -1°C° 0 mm 3 mps 748 mmHg 77%
    02:00 -2°C° 0 mm 4 mps 748 mmHg 75%
    03:00 -2°C° 0 mm 4 mps 748 mmHg 73%
    04:00 -1°C° 0 mm 4 mps 747 mmHg 71%
    05:00 -1°C° 0 mm 5 mps 747 mmHg 70%
    06:00 -1°C° 0 mm 5 mps 747 mmHg 68%
    07:00 -2°C° 0 mm 6 mps 746 mmHg 67%
    14:00 +2°C° 0.1 mm 7 mps 746 mmHg 81%
    15:00 +3°C° 0.1 mm 7 mps 747 mmHg 77%
    16:00 +3°C° 0.1 mm 7 mps 747 mmHg 72%
    17:00 +2°C° 0 mm 7 mps 748 mmHg 73%
    18:00 +2°C° 0 mm 6 mps 749 mmHg 73%
    19:00 +1°C° 0 mm 5 mps 750 mmHg 74%
    20:00 +1°C° 0 mm 5 mps 750 mmHg 75%
    21:00 0°C° 0 mm 5 mps 751 mmHg 77%
    22:00 0°C° 0 mm 5 mps 751 mmHg 78%
    23:00 0°C° 0 mm 5 mps 751 mmHg 80%

    22 February, Saturday

    Time Temperature Precipitation Wind Pressure Humidity
    00:00 -1°C° 0 mm 4 mps 751 mmHg 81%
    01:00 -1°C° 0 mm 4 mps 751 mmHg 82%
    02:00 -1°C° 0 mm 4 mps 751 mmHg 81%
    03:00 -1°C° 0 mm 5 mps 751 mmHg 79%
    04:00 -1°C° 0 mm 5 mps 751 mmHg 78%
    05:00 -1°C° 0 mm 5 mps 750 mmHg 77%
    06:00 -2°C° 0 mm 6 mps 749 mmHg 76%
    07:00 -1°C° 0 mm 6 mps 749 mmHg 75%
    08:00 -1°C° 0 mm 7 mps 749 mmHg 71%
    09:00 0°C° 0 mm 7 mps 748 mmHg 67%
    10:00 +1°C° 0 mm 8 mps 748 mmHg 63%
    11:00 +1°C° 0.1 mm 8 mps 747 mmHg 69%
    12:00 +1°C° 0.1 mm 9 mps 747 mmHg 74%
    13:00 +1°C° 0.1 mm 9 mps 746 mmHg 80%
    14:00 +1°C° 0.1 mm 9 mps 746 mmHg 80%
    15:00 +1°C° 0.1 mm 9 mps 745 mmHg 80%
    16:00 +1°C° 0.1 mm 9 mps 744 mmHg 80%
    17:00 +2°C° 0 mm 9 mps 744 mmHg 78%
    18:00 +2°C° 0 mm 10 mps 743 mmHg 77%
    19:00 +3°C° 0 mm 10 mps 743 mmHg 75%
    20:00 +3°C° 0.6 mm 10 mps 743 mmHg 78%
    21:00 +3°C° 0.6 mm 10 mps 743 mmHg 80%
    22:00 +5°C° 0.6 mm 10 mps 743 mmHg 82%
    23:00 +3°C° 0.2 mm 10 mps 743 mmHg 78%
    Show more